User: anonymous   Login
Location: Unspecified
(0.0000°N, 0.0000°E)
Time: 02:39:54
(UTC+01:00)
Language:

CZ-2C R/B - Orbit

View from above orbital plane
View from above orbital plane
View from above satellite
View from above satellite

Ground track
Ground track

The orbit data is extracted from the following two-line orbital elements,

1 28480U 04046B   17021.20543281 -.00000002  00000-0  15227-4 0  9996
2 28480  98.1936 126.9047 0140934 298.5509 122.6654 14.25623339633295
Epoch (UTC): 21 January 2017 04:55:49
Eccentricity: 0.0140934
inclination: 98.1936°
perigee height: 705 km
apogee height: 907 km
right ascension of ascending node: 126.9047°
argument of perigee: 298.5509°
revolutions per day: 14.25623339
mean anomaly at epoch: 122.6654°
orbit number at epoch: 63329

The dashed part of the orbit path shows where the satellite is in the earth's shadow,  

DLR